K4VI Weather Reports


Display with metric or nautical units.
time (UTC)temp
F
wind
direction
speed
MPH
gust
MPH
rain 1hr
in
rain 24hr
in
rain mn
in
humidity
%
barometer
mb
20260903105003 59 312 6.0 13.0 0.00 0.00 0.00 45 1038.4
20260903104503 59 311 6.0 12.0 0.00 0.00 0.00 45 1038.4
20260903104003 59 313 5.0 12.0 0.00 0.00 0.00 45 1038.4
20260903103503 59 307 3.0 9.0 0.00 0.00 0.00 45 1038.4
20260903103220 59 306 4.0 10.0 0.00 0.00 0.00 45 1038.5
20260903102503 60 304 6.0 14.0 0.00 0.00 0.00 44 1038.5
20260903102003 59 310 7.0 14.0 0.00 0.00 0.00 45 1038.5
20260903101503 58 313 5.0 14.0 0.00 0.00 0.00 47 1038.5
20260903101003 56 315 3.0 9.0 0.00 0.00 0.00 50 1038.4
20260903100503 55 317 2.0 9.0 0.00 0.00 0.00 51 1038.4
20260903100004 55 314 2.0 7.0 0.00 0.00 0.00 52 1038.5
20260903095721 54 322 1.0 4.0 0.00 0.00 0.00 52 1038.5
20260903095004 55 321 1.0 4.0 0.00 0.00 0.00 51 1038.7
20260903094503 55 321 1.0 3.0 0.00 0.00 0.00 51 1038.7
20260903094220 55 317 1.0 4.0 0.00 0.00 0.00 51 1038.7
20260903093503 55 328 1.0 4.0 0.00 0.00 0.00 50 1038.6
20260903093003 56 357 1.0 3.0 0.00 0.00 0.00 49 1038.6
20260903092503 57 337 2.0 5.0 0.00 0.00 0.00 48 1038.5
20260903092003 58 321 2.0 7.0 0.00 0.00 0.00 47 1038.6
20260903091503 58 313 2.0 7.0 0.00 0.00 0.00 47 1038.6
20260903091218 57 314 2.0 8.0 0.00 0.00 0.00 47 1038.7
20260903090721 57 324 2.0 8.0 0.00 0.00 0.00 47 1038.6
20260903090003 57 322 3.0 6.0 0.00 0.00 0.00 47 1038.7
20260903085503 58 325 3.0 6.0 0.00 0.00 0.00 46 1038.7
20260903085003 58 322 4.0 9.0 0.00 0.00 0.00 46 1038.7
20260903084718 58 320 3.0 9.0 0.00 0.00 0.00 46 1038.7
20260903084003 58 322 4.0 9.0 0.00 0.00 0.00 47 1038.7
20260903083503 58 320 4.0 9.0 0.00 0.00 0.00 46 1038.9
20260903083003 58 320 5.0 10.0 0.00 0.00 0.00 46 1038.9
20260903082503 58 324 5.0 10.0 0.00 0.00 0.00 47 1038.8
20260903082003 58 324 4.0 9.0 0.00 0.00 0.00 47 1038.9
20260903081503 58 323 4.0 9.0 0.00 0.00 0.00 47 1039.0
20260903081003 58 325 4.0 8.0 0.00 0.00 0.00 48 1039.0
20260903080503 58 327 3.0 6.0 0.00 0.00 0.00 48 1039.1
20260903080004 58 327 3.0 8.0 0.00 0.00 0.00 48 1039.1
20260903075503 58 327 3.0 8.0 0.00 0.00 0.00 48 1039.1
20260903075220 57 330 3.0 8.0 0.00 0.00 0.00 49 1039.1
20260903074503 57 328 3.0 8.0 0.00 0.00 0.00 50 1039.1
20260903074221 56 321 3.0 7.0 0.00 0.00 0.00 51 1039.1
20260903073503 55 318 3.0 5.0 0.00 0.00 0.00 53 1039.1
20260903073217 54 322 2.0 5.0 0.00 0.00 0.00 54 1039.1
20260903072503 54 325 1.0 2.0 0.00 0.00 0.00 55 1039.1
20260903072003 55 325 0.0 3.0 0.00 0.00 0.00 54 1039.2
20260903071503 55 324 1.0 4.0 0.00 0.00 0.00 54 1039.3
20260903071003 55 328 1.0 4.0 0.00 0.00 0.00 53 1039.3
20260903070503 55 341 1.0 4.0 0.00 0.00 0.00 53 1039.2
20260903070003 56 57 0.0 2.0 0.00 0.00 0.00 52 1039.1
20260903065503 56 64 1.0 3.0 0.00 0.00 0.00 51 1039.2
20260903065003 57 63 1.0 3.0 0.00 0.00 0.00 51 1039.1
20260903064503 57 54 1.0 3.0 0.00 0.00 0.00 50 1039.0
20260903064003 58 21 1.0 3.0 0.00 0.00 0.00 49 1039.1
20260903063720 58 20 1.0 3.0 0.00 0.00 0.00 49 1038.9
20260903063003 58 16 1.0 3.0 0.00 0.00 0.00 48 1039.0
20260903062721 58 351 1.0 5.0 0.00 0.00 0.00 48 1039.1
20260903062003 59 317 2.0 8.0 0.00 0.00 0.00 47 1039.1
20260903061503 58 327 3.0 8.0 0.00 0.00 0.00 47 1038.9
20260903061003 58 1 2.0 7.0 0.00 0.00 0.00 47 1038.8
20260903060717 58 37 2.0 7.0 0.00 0.00 0.00 48 1038.8
20260903060003 58 36 1.0 5.0 0.00 0.00 0.00 49 1038.8
20260903055503 57 62 1.0 3.0 0.00 0.00 0.00 49 1038.8
20260903055003 58 333 2.0 3.0 0.00 0.00 0.00 49 1038.8
20260903054503 58 351 1.0 4.0 0.00 0.00 0.00 48 1038.8
20260903054003 59 21 1.0 4.0 0.00 0.00 0.00 47 1038.7
20260903053721 59 30 1.0 3.0 0.00 0.00 0.00 46 1038.9
20260903053218 60 68 1.0 5.0 0.00 0.00 0.00 46 1038.9
20260903052503 60 335 2.0 5.0 0.00 0.00 0.00 45 1038.9
20260903052003 61 266 2.0 7.0 0.00 0.00 0.00 45 1038.9
20260903051503 61 255 3.0 8.0 0.00 0.00 0.00 44 1038.9
20260903051003 61 279 3.0 8.0 0.00 0.00 0.00 44 1038.8
20260903050503 62 232 3.0 10.0 0.00 0.00 0.00 43 1038.9
20260903050003 62 205 4.0 10.0 0.00 0.00 0.00 43 1038.9
20260903045503 62 202 3.0 8.0 0.00 0.00 0.00 43 1038.8
20260903045003 62 239 2.0 6.0 0.00 0.00 0.00 43 1038.9
20260903044720 62 232 2.0 6.0 0.00 0.00 0.00 42 1038.9
20260903044003 62 250 3.0 11.0 0.00 0.00 0.00 42 1039.0
20260903043503 63 280 4.0 11.0 0.00 0.00 0.00 42 1039.0
20260903043003 63 301 6.0 15.0 0.00 0.00 0.00 41 1039.0
20260903042503 63 305 8.0 15.0 0.00 0.00 0.00 41 1039.0
20260903042003 63 292 6.0 15.0 0.00 0.00 0.00 41 1039.1
20260903041503 63 267 3.0 9.0 0.00 0.00 0.00 42 1039.3
20260903041003 63 267 3.0 9.0 0.00 0.00 0.00 41 1039.2
20260903040719 62 271 4.0 9.0 0.00 0.00 0.00 42 1039.3
20260903040004 62 292 3.0 9.0 0.00 0.00 0.00 42 1039.3
20260903035503 62 291 3.0 11.0 0.00 0.00 0.00 43 1039.3
20260903035003 62 289 3.0 11.0 0.00 0.00 0.00 44 1039.3
20260903034503 61 299 4.0 9.0 0.00 0.00 0.00 45 1039.1
20260903034003 61 304 5.0 13.0 0.00 0.00 0.00 45 1039.1
20260903033503 61 302 5.0 13.0 0.00 0.00 0.00 46 1039.0
20260903033220 61 304 5.0 13.0 0.00 0.00 0.00 46 1038.8
20260903032717 61 305 6.0 13.0 0.00 0.00 0.00 46 1038.6
20260903032003 61 301 7.0 14.0 0.00 0.00 0.00 46 1038.7
20260903031503 61 300 8.0 14.0 0.00 0.00 0.00 46 1038.7
20260903031003 61 301 8.0 14.0 0.00 0.00 0.00 46 1038.7
20260903030503 62 301 8.0 14.0 0.00 0.00 0.00 45 1038.7
20260903030003 62 309 8.0 16.0 0.00 0.00 0.00 43 1038.6
20260903025503 63 315 8.0 16.0 0.00 0.00 0.00 42 1038.6
20260903025003 64 314 9.0 16.0 0.00 0.00 0.00 41 1038.5
20260903024503 64 311 10.0 18.0 0.00 0.00 0.00 40 1038.6
20260903024003 64 312 10.0 18.0 0.00 0.00 0.00 39 1038.5
20260903023717 65 315 10.0 17.0 0.00 0.00 0.00 39 1038.5
20260903023220 65 319 9.0 16.0 0.00 0.00 0.00 39 1038.5
20260903022504 65 312 9.0 22.0 0.00 0.00 0.00 38 1038.5
20260903022003 66 314 6.0 22.0 0.00 0.00 0.00 38 1038.4
20260903021503 66 303 3.0 13.0 0.00 0.00 0.00 38 1038.4
20260903021003 66 284 3.0 15.0 0.00 0.00 0.00 37 1038.3
20260903020503 67 285 5.0 15.0 0.00 0.00 0.00 36 1038.3
20260903020003 67 227 4.0 12.0 0.00 0.00 0.00 34 1038.1
20260903015721 67 177 3.0 9.0 0.00 0.00 0.00 32 1038.2
20260903015219 68 159 4.0 12.0 0.00 0.00 0.00 29 1038.1
20260903014503 68 156 5.0 12.0 0.00 0.00 0.00 29 1038.1
20260903014003 68 155 3.0 9.0 0.00 0.00 0.00 29 1038.0
20260903013503 68 168 4.0 10.0 0.00 0.00 0.00 28 1038.0
20260903013003 68 167 3.0 10.0 0.00 0.00 0.00 28 1038.0
20260903012503 68 150 2.0 8.0 0.00 0.00 0.00 28 1038.0
20260903012003 68 160 2.0 6.0 0.00 0.00 0.00 27 1038.0
20260903011503 69 148 3.0 9.0 0.00 0.00 0.00 27 1037.9
20260903011218 69 148 3.0 9.0 0.00 0.00 0.00 27 1037.9
20260903010721 69 171 4.0 10.0 0.00 0.00 0.00 27 1037.9
20260903010219 69 154 5.0 10.0 0.00 0.00 0.00 27 1037.9
20260903005503 69 148 5.0 11.0 0.00 0.00 0.00 26 1037.9
20260903005003 70 161 5.0 14.0 0.00 0.00 0.00 26 1037.9
20260903004503 70 159 5.0 14.0 0.00 0.00 0.00 26 1038.0
20260903004003 70 155 5.0 10.0 0.00 0.00 0.00 25 1037.9
20260903003503 71 161 5.0 11.0 0.00 0.00 0.00 24 1037.9
20260903003003 72 165 5.0 14.0 0.00 0.00 0.00 24 1037.8
20260903002504 72 162 5.0 14.0 0.00 0.00 0.00 24 1037.9
20260903002003 73 162 5.0 14.0 0.00 0.00 0.00 23 1037.9
20260903001503 73 174 5.0 13.0 0.00 0.00 0.00 23 1037.9
20260903001219 73 163 5.0 13.0 0.00 0.00 0.00 22 1037.8
20260903000503 75 183 5.0 10.0 0.00 0.00 0.00 22 1037.7
20260903000003 75 207 4.0 10.0 0.00 0.00 0.00 23 1037.7
20260902235503 75 184 4.0 13.0 0.00 0.00 0.00 23 1037.7
20260902235003 74 174 4.0 13.0 0.00 0.00 0.00 24 1037.6
20260902234503 74 134 5.0 13.0 0.00 0.00 0.00 24 1037.7
20260902234003 74 130 5.0 13.0 0.00 0.00 0.00 23 1037.7
20260902233503 75 152 4.0 11.0 0.00 0.00 0.00 23 1037.6
20260902233003 75 145 5.0 13.0 0.00 0.00 0.00 23 1037.9
20260902232503 75 174 4.0 13.0 0.00 0.00 0.00 24 1037.7
20260902232003 75 208 4.0 12.0 0.00 0.00 0.00 25 1037.9
20260902231721 75 171 4.0 9.0 0.00 0.00 0.00 26 1037.8
20260902231003 75 179 4.0 11.0 0.00 0.00 0.00 25 1037.9
20260902230503 74 228 4.0 11.0 0.00 0.00 0.00 26 1038.1
20260902230004 74 161 5.0 14.0 0.00 0.00 0.00 25 1038.1
20260902225504 74 152 6.0 14.0 0.00 0.00 0.00 25 1038.0
20260902225004 74 166 5.0 13.0 0.00 0.00 0.00 26 1038.2
20260902224719 74 195 5.0 13.0 0.00 0.00 0.00 26 1038.3
20260902224217 72 251 5.0 12.0 0.00 0.00 0.00 27 1038.3
20260902223503 72 261 6.0 16.0 0.00 0.00 0.00 27 1038.3
20260902223003 74 212 6.0 16.0 0.00 0.00 0.00 25 1038.3
20260902222503 74 142 5.0 12.0 0.00 0.00 0.00 26 1038.3
20260902222004 73 159 4.0 10.0 0.00 0.00 0.00 26 1038.3
20260902221503 73 188 4.0 11.0 0.00 0.00 0.00 26 1038.3
20260902221003 73 179 5.0 11.0 0.00 0.00 0.00 26 1038.5
20260902220503 74 175 5.0 12.0 0.00 0.00 0.00 26 1038.4
20260902220221 74 188 5.0 12.0 0.00 0.00 0.00 26 1038.3
20260902215503 73 185 6.0 12.0 0.00 0.00 0.00 27 1038.6
20260902215222 73 173 6.0 14.0 0.00 0.00 0.00 27 1038.5
20260902214503 73 171 6.0 14.0 0.00 0.00 0.00 28 1038.5
20260902214003 73 187 6.0 19.0 0.00 0.00 0.00 29 1038.5
20260902213504 73 206 5.0 19.0 0.00 0.00 0.00 29 1038.6
20260902213218 73 192 5.0 19.0 0.00 0.00 0.00 28 1038.5
20260902212721 72 190 7.0 14.0 0.00 0.00 0.00 29 1038.7
20260902212003 72 217 6.0 18.0 0.00 0.00 0.00 28 1038.6
20260902211503 75 178 4.0 16.0 0.00 0.00 0.00 28 1038.7
20260902211003 74 258 5.0 13.0 0.00 0.00 0.00 28 1038.9
20260902210503 74 274 5.0 13.0 0.00 0.00 0.00 27 1039.0
20260902210003 75 256 5.0 14.0 0.00 0.00 0.00 27 1039.0
20260902205503 75 200 5.0 14.0 0.00 0.00 0.00 28 1039.0
20260902205003 74 212 5.0 13.0 0.00 0.00 0.00 28 1039.1
20260902204720 74 240 5.0 10.0 0.00 0.00 0.00 28 1039.2
20260902204003 73 182 6.0 15.0 0.00 0.00 0.00 30 1039.3
20260902203503 72 222 6.0 15.0 0.00 0.00 0.00 29 1039.4
20260902203219 72 257 5.0 15.0 0.00 0.00 0.00 29 1039.5
20260902202717 73 218 5.0 13.0 0.00 0.00 0.00 29 1039.5
20260902202003 72 253 5.0 11.0 0.00 0.00 0.00 30 1039.7
20260902201504 72 253 4.0 11.0 0.00 0.00 0.00 31 1039.7
20260902201003 72 254 4.0 8.0 0.00 0.00 0.00 31 1039.7
20260902200503 72 160 5.0 12.0 0.00 0.00 0.00 31 1039.8
20260902200003 72 148 5.0 12.0 0.00 0.00 0.00 33 1039.9
20260902195503 71 187 5.0 13.0 0.00 0.00 0.00 33 1039.9
20260902195218 71 182 5.0 13.0 0.00 0.00 0.00 33 1040.0
20260902194503 70 191 6.0 13.0 0.00 0.00 0.00 35 1039.9
20260902194219 69 203 6.0 13.0 0.00 0.00 0.00 35 1039.9
20260902193717 70 228 6.0 12.0 0.00 0.00 0.00 34 1039.9
20260902193003 69 249 4.0 12.0 0.00 0.00 0.00 35 1040.1
20260902192503 69 249 3.0 9.0 0.00 0.00 0.00 36 1040.1
20260902192004 68 296 3.0 8.0 0.00 0.00 0.00 35 1040.1
20260902191503 69 273 2.0 7.0 0.00 0.00 0.00 35 1040.0
20260902191004 70 249 3.0 9.0 0.00 0.00 0.00 34 1040.2
20260902190503 70 267 4.0 10.0 0.00 0.00 0.00 34 1040.2
20260902190217 69 262 4.0 10.0 0.00 0.00 0.00 35 1040.3
20260902185503 69 259 3.0 9.0 0.00 0.00 0.00 35 1040.3
20260902185003 69 265 5.0 15.0 0.00 0.00 0.00 35 1040.6
20260902184503 69 266 6.0 15.0 0.00 0.00 0.00 34 1040.5
20260902184003 70 266 5.0 11.0 0.00 0.00 0.00 34 1040.6
20260902183503 70 267 5.0 11.0 0.00 0.00 0.00 34 1040.7
20260902183220 69 262 5.0 12.0 0.00 0.00 0.00 35 1040.6
20260902182504 69 256 5.0 12.0 0.00 0.00 0.00 35 1040.7
20260902182004 70 205 4.0 11.0 0.00 0.00 0.00 34 1040.8
20260902181503 70 170 5.0 13.0 0.00 0.00 0.00 35 1040.9
20260902181003 69 222 5.0 13.0 0.00 0.00 0.00 35 1040.9
20260902180503 69 240 4.0 11.0 0.00 0.00 0.00 35 1041.0
20260902180006 68 188 5.0 11.0 0.00 0.00 0.00 37 1041.1
20260902175503 68 243 5.0 11.0 0.00 0.00 0.00 37 1041.1
20260902175003 67 271 3.0 11.0 0.00 0.00 0.00 38 1041.2
20260902174717 67 258 4.0 12.0 0.00 0.00 0.00 36 1041.2
20260902174003 67 164 4.0 12.0 0.00 0.00 0.00 37 1041.3
20260902173503 67 155 5.0 12.0 0.00 0.00 0.00 37 1041.4
20260902173003 66 224 4.0 11.0 0.00 0.00 0.00 38 1041.3
20260902172503 66 251 5.0 11.0 0.00 0.00 0.00 37 1041.4
20260902172004 66 254 4.0 11.0 0.00 0.00 0.00 37 1041.4
20260902171503 66 260 3.0 10.0 0.00 0.00 0.00 38 1041.4
20260902171003 66 263 4.0 9.0 0.00 0.00 0.00 38 1041.5
20260902170504 66 244 4.0 9.0 0.00 0.00 0.00 38 1041.5
20260902170004 65 237 3.0 9.0 0.00 0.00 0.00 39 1041.5
20260902165503 65 260 3.0 9.0 0.00 0.00 0.00 39 1041.6
20260902165220 65 255 4.0 9.0 0.00 0.00 0.00 40 1041.6
20260902164503 65 254 5.0 9.0 0.00 0.00 0.00 39 1041.6
20260902164003 65 222 3.0 9.0 0.00 0.00 0.00 39 1041.5
20260902163503 65 181 2.0 8.0 0.00 0.00 0.00 40 1041.6
20260902163003 64 196 2.0 6.0 0.00 0.00 0.00 41 1041.6
20260902162719 64 222 2.0 7.0 0.00 0.00 0.00 41 1041.6
20260902162004 64 239 2.0 7.0 0.00 0.00 0.00 41 1041.7
20260902161503 63 251 3.0 7.0 0.00 0.00 0.00 41 1041.6
20260902161218 63 250 3.0 7.0 0.00 0.00 0.00 40 1041.8
20260902160721 63 262 2.0 8.0 0.00 0.00 0.00 40 1041.7
20260902160219 63 250 2.0 8.0 0.00 0.00 0.00 42 1041.8
20260902155503 62 224 2.0 6.0 0.00 0.00 0.00 42 1041.8
20260902155003 62 286 3.0 9.0 0.00 0.00 0.00 43 1041.7
20260902154503 62 326 3.0 10.0 0.00 0.00 0.00 43 1041.7
20260902154003 62 320 3.0 10.0 0.00 0.00 0.00 43 1041.8
20260902153503 61 303 4.0 9.0 0.00 0.00 0.00 43 1041.8
20260902153217 61 290 4.0 9.0 0.00 0.00 0.00 43 1041.9
20260902152503 61 300 5.0 10.0 0.00 0.00 0.00 43 1041.8
20260902152003 61 305 4.0 10.0 0.00 0.00 0.00 43 1041.8
20260902151503 61 299 4.0 10.0 0.00 0.00 0.00 42 1041.7
20260902151003 60 306 4.0 11.0 0.00 0.00 0.00 44 1041.8
20260902150503 60 316 6.0 11.0 0.00 0.00 0.00 44 1041.8
20260902150003 60 317 5.0 11.0 0.00 0.00 0.00 44 1041.8
20260902145503 60 316 5.0 12.0 0.00 0.00 0.00 44 1041.7
20260902145003 60 309 5.0 12.0 0.00 0.00 0.00 43 1041.7
20260902144504 60 311 6.0 11.0 0.00 0.00 0.00 44 1041.6
20260902144003 59 318 6.0 12.0 0.00 0.00 0.00 44 1041.8
20260902143504 59 318 6.0 12.0 0.00 0.00 0.00 45 1041.7
20260902143218 59 317 6.0 12.0 0.00 0.00 0.00 44 1041.7
20260902142503 59 313 7.0 11.0 0.00 0.00 0.00 44 1041.7
20260902142003 59 314 7.0 13.0 0.00 0.00 0.00 44 1041.6
20260902141503 58 314 7.0 13.0 0.00 0.00 0.00 44 1041.7
20260902141003 58 309 6.0 11.0 0.00 0.00 0.00 45 1041.7
20260902140504 58 307 4.0 10.0 0.00 0.00 0.00 45 1041.5
20260902140003 58 315 3.0 6.0 0.00 0.00 0.00 46 1041.5
20260902135503 58 315 3.0 6.0 0.00 0.00 0.00 46 1041.5
20260902135003 57 316 3.0 7.0 0.00 0.00 0.00 46 1041.4
20260902134503 57 324 3.0 7.0 0.00 0.00 0.00 47 1041.4
20260902134003 57 322 3.0 6.0 0.00 0.00 0.00 48 1041.4
20260902133503 57 320 3.0 5.0 0.00 0.00 0.00 47 1041.3
20260902133003 57 317 3.0 7.0 0.00 0.00 0.00 47 1041.2
20260902132503 57 314 4.0 8.0 0.00 0.00 0.00 47 1041.1
20260902132003 57 317 4.0 8.0 0.00 0.00 0.00 47 1041.1
20260902131503 57 318 5.0 14.0 0.00 0.00 0.00 46 1041.0
20260902131220 57 317 5.0 14.0 0.00 0.00 0.00 45 1040.9
20260902130503 57 308 5.0 9.0 0.00 0.00 0.00 45 1040.8
20260902130003 57 308 5.0 12.0 0.00 0.00 0.00 45 1040.7
20260902125504 57 315 5.0 12.0 0.00 0.00 0.00 46 1040.8
20260902125003 57 320 6.0 14.0 0.00 0.00 0.00 46 1040.8
20260902124720 57 320 6.0 14.0 0.00 0.00 0.00 46 1040.8
20260902124003 57 319 5.0 11.0 0.00 0.00 0.00 46 1040.7
20260902123503 58 316 6.0 12.0 0.00 0.00 0.00 46 1040.5
20260902123003 58 316 7.0 14.0 0.00 0.00 0.00 45 1040.5
20260902122503 57 317 8.0 15.0 0.00 0.00 0.00 46 1040.4
20260902122003 58 314 8.0 15.0 0.00 0.00 0.00 45 1040.5
20260902121503 58 311 8.0 17.0 0.00 0.00 0.00 45 1040.4
20260902121221 58 312 8.0 17.0 0.00 0.00 0.00 45 1040.4
20260902120503 58 308 8.0 17.0 0.00 0.00 0.00 45 1040.4
20260902120004 58 312 9.0 17.0 0.00 0.00 0.00 44 1040.3
20260902115503 58 314 9.0 17.0 0.00 0.00 0.00 44 1040.2
20260902115004 58 316 8.0 17.0 0.00 0.00 0.00 45 1040.2
20260902114503 58 318 8.0 15.0 0.00 0.00 0.00 46 1040.2
20260902114003 58 317 9.0 21.0 0.00 0.00 0.00 46 1040.1
20260902113503 58 317 10.0 21.0 0.00 0.00 0.00 46 1040.1
20260902113220 58 315 10.0 17.0 0.00 0.00 0.00 46 1040.0
20260902112503 58 310 9.0 17.0 0.00 0.00 0.00 47 1039.9
20260902112221 58 309 10.0 17.0 0.00 0.00 0.00 47 1040.0
20260902111503 58 313 11.0 21.0 0.00 0.00 0.00 47 1040.2
20260902111003 58 312 10.0 21.0 0.00 0.00 0.00 47 1040.2
20260902110503 58 306 9.0 17.0 0.00 0.00 0.00 48 1040.3
20260902110005 58 308 9.0 17.0 0.00 0.00 0.00 48 1040.4
20260902105503 58 309 9.0 20.0 0.00 0.00 0.00 48 1040.6